{"data":{"norad_id":55743,"epoch":"2026-09-20T22:00:03.000096Z","epoch_age_seconds":67150,"freshness":"FRESH","line1":"1 55743U 23028C   26263.91670139  .00075269  00000+0  54066-2 0  9995","line2":"2 55743  69.9992 112.3450 0006054 261.7542 338.1096 15.03845777  5617","mean_motion":15.03845777,"eccentricity":0.0006054,"inclination_deg":69.9992,"raan_deg":112.345,"arg_perigee_deg":261.7542,"mean_anomaly_deg":338.1096,"bstar":0.0054066,"rev_number":561,"period_min":95.754499698276,"perigee_km":550.85360956236,"apogee_km":559.24831354621,"semimajor_km":6933.1879615543,"source":"CELESTRAK","updated_at":"2026-09-21T09:00:33.311802Z"}}